Location: Unspecified
(0.0000°N, 0.0000°E)
Time: 19:31:20
(UTC+00:00)

Vanguard 1 - Pass Details

Date: 16 April 2026
Orbit: 654 x 3817 km, 34.2° (Epoch: 18 May)

Event Time Altitude Azimuth Distance (km) Brightness Sun altitude
Rises 19:51:28 0° 235° (SW) 5,609 14.5 -27.4°
Reaches altitude 10° 19:54:29 10° 236° (SW) 4,936 14.1 -28.2°
Maximum altitude 20:10:27 83° 322° (NW) 3,351 12.5 -32.1°
Drops below altitude 10° 20:34:14 10° 50° (NE) 6,885 14.0 -37.9°
Sets 20:39:26 0° 51° (NE) 7,806 14.4 -39.1°
